Location: Huberhof
(49.2050°N, 7.4980°E)
Time: 03:57:07
(UTC+00:00)

NOAA 12 - Pass Details

Date: 29 October 2020
Orbit: 796 x 815 km, 98.5° (Epoch: 25 November)

Event Time Altitude Azimuth Distance (km) Brightness Sun altitude
Rises 16:40:49 0° 160° (SSE) 3,313 7.2 -5.1°
Reaches altitude 10° 16:43:08 10° 159° (SSE) 2,389 6.5 -5.5°
Maximum altitude 16:48:26 80° 73° (ENE) 830 4.1 -6.3°
Drops below altitude 10° 16:53:47 10° 347° (NNW) 2,415 6.6 -7.2°
Sets 16:56:08 0° 347° (NNW) 3,353 7.3 -7.6°
